Find Starlink 31010

NORAD ID: 58519 Int'l Des: 2023-191 Owner: SPXS Country: US Constellation: starlink operational
LEOCIRCULAR

リアルタイム位置

3D地球を読み込み中...

Starlink 31010について

説明を読み込み中...

次回通過

Passes for default location (London). Set your location on the main map for personalized predictions.

高度履歴

Loading altitude history...

軌道要素

1 58519U 23191M 26122.13795017 .00000264 00000-0 19101-4 0 9998
2 58519 42.9986 161.6934 0001168 283.8248 76.2474 15.27576013133643
Epoch: May 2, 2026 • Age: 9 hours

現在のステータス

高度 495.1 km
速度 7.62 km/s
衛星直下点 -41.66°S, 6.65°E
打ち上げ日 Dec 7, 2023
運用期間 2.4 years
タイプ internet

技術仕様

分類 Payload
質量 730.00 kg
乾燥質量 700.00 kg
総質量 730.00 kg
長さ 0.30 m
直径 4.10 m
スパン 29.00 m
形状 Box + pan
製造者 SPXS
バスタイプ Starlink V2M
フェーズステータス In Orbit
所有者/国 SPXS/US

Most Searched